User: anonymous   Login
Location: Bangkok
(13.7500°N, 100.5170°E)
Time: 13:54:10
(UTC+07:00)
Language:

Cosmos 1898 Rocket - Orbit

View from above orbital plane
View from above orbital plane
View from above satellite
View from above satellite

Ground track
Ground track

The orbit data is extracted from the following two-line orbital elements,

1 18586U 87098B   16176.49021148  .00000068  00000-0  31875-4 0  9992
2 18586  74.0065 233.9665 0020860  11.8151  88.5566 14.36728568495993
Epoch (UTC): 24 June 2016 11:45:54
Eccentricity: 0.0020860
inclination: 74.0065°
perigee height: 754 km
apogee height: 784 km
right ascension of ascending node: 233.9665°
argument of perigee: 11.8151°
revolutions per day: 14.36728568
mean anomaly at epoch: 88.5566°
orbit number at epoch: 49599

The dashed part of the orbit path shows where the satellite is in the earth's shadow,  

DLR